TPA4116 SABE-SKBO

Flight info

Callsign TPA4116
Flight time 5h 46m
Altitude 34000
Route BIVAM4B BIVAM UN775 MAMKA/N0479F360 UN775 PILCO UM784 LOKOX UL417 EPLAG/N0474F380 UL417 BUTAN/N0476F370 UW89 VVC/N0436F240 W17 EGEPI EGEPI5E
Aircraft A333/H-SDE3GHIJ2J3J5M1RVWXY/LB2D1

Departure

Time 2026-05-06 23:52
Airport Aeroparque Jorge Newbery (SABE)

Arrival

Time 2026-05-07 05:39
Airport El Dorado International Airport (SKBO)
Time Latitude Longitude Altitude Speed Heading
2026-05-06 23:15 -34.55938 -58.41146 -166 ft 0 kts 218°
2026-05-06 23:40 -34.55933 -58.41141 27 ft 4 kts 222°
2026-05-06 23:40 -34.55921 -58.41120 27 ft 4 kts 290°
2026-05-06 23:40 -34.55937 -58.41104 27 ft 4 kts 336°
2026-05-06 23:40 -34.55960 -58.41089 27 ft 2 kts 316°
2026-05-06 23:41 -34.55961 -58.41088 27 ft 0 kts 315°
2026-05-06 23:44 -34.55960 -58.41090 27 ft 2 kts 314°
2026-05-06 23:45 -34.55939 -58.41117 27 ft 7 kts 312°
2026-05-06 23:45 -34.55901 -58.41169 27 ft 8 kts 311°
2026-05-06 23:45 -34.55871 -58.41214 27 ft 6 kts 307°
2026-05-06 23:45 -34.55863 -58.41248 27 ft 3 kts 275°
2026-05-06 23:46 -34.55874 -58.41279 27 ft 5 kts 232°
2026-05-06 23:46 -34.55899 -58.41327 27 ft 9 kts 262°
2026-05-06 23:46 -34.55876 -58.41402 26 ft 9 kts 295°
2026-05-06 23:46 -34.55848 -58.41470 26 ft 9 kts 297°
2026-05-06 23:47 -34.55818 -58.41544 26 ft 10 kts 296°
2026-05-06 23:47 -34.55785 -58.41624 26 ft 11 kts 296°
2026-05-06 23:47 -34.55749 -58.41711 27 ft 12 kts 298°
2026-05-06 23:47 -34.55706 -58.41800 30 ft 12 kts 304°
2026-05-06 23:48 -34.55663 -58.41877 31 ft 10 kts 304°
2026-05-06 23:48 -34.55629 -58.41936 27 ft 7 kts 304°
2026-05-06 23:48 -34.55605 -58.41979 27 ft 5 kts 304°
2026-05-06 23:48 -34.55587 -58.42011 27 ft 4 kts 304°
2026-05-06 23:49 -34.55564 -58.42051 27 ft 8 kts 305°
2026-05-06 23:49 -34.55525 -58.42116 27 ft 11 kts 307°
2026-05-06 23:49 -34.55472 -58.42201 27 ft 14 kts 307°
2026-05-06 23:49 -34.55408 -58.42303 27 ft 15 kts 308°
2026-05-06 23:50 -34.55379 -58.42353 26 ft 0 kts 301°
2026-05-06 23:50 -34.55367 -58.42386 26 ft 6 kts 291°
2026-05-06 23:50 -34.55355 -58.42449 26 ft 9 kts 274°
2026-05-06 23:51 -34.55390 -58.42503 27 ft 8 kts 181°
2026-05-06 23:51 -34.55428 -58.42458 27 ft 7 kts 126°
2026-05-06 23:51 -34.55441 -58.42435 27 ft 0 kts 124°
2026-05-06 23:51 -34.55519 -58.42298 28 ft 47 kts 124°
2026-05-06 23:52 -34.55805 -58.41784 29 ft 100 kts 124°
2026-05-06 23:52 -34.56290 -58.40915 28 ft 147 kts 123°
2026-05-06 23:52 -34.56940 -58.39864 485 ft 157 kts 124°
2026-05-06 23:52 -34.57504 -58.38739 1124 ft 160 kts 111°
2026-05-06 23:53 -34.57779 -58.37454 1769 ft 155 kts 69°
2026-05-06 23:53 -34.57222 -58.36459 2430 ft 140 kts 28°
2026-05-06 23:53 -34.56388 -58.35860 2925 ft 141 kts 20°
2026-05-06 23:53 -34.55506 -58.35295 3423 ft 145 kts 21°
2026-05-06 23:54 -34.54612 -58.34700 3935 ft 148 kts 22°
2026-05-06 23:54 -34.53715 -58.34080 4473 ft 149 kts 23°
2026-05-06 23:54 -34.52813 -58.33450 4996 ft 150 kts 22°
2026-05-06 23:54 -34.51881 -58.32911 5504 ft 147 kts 11°
2026-05-06 23:55 -34.50880 -58.32780 6108 ft 145 kts 351°
2026-05-06 23:55 -34.49906 -58.33035 6777 ft 143 kts 342°
2026-05-06 23:55 -34.48973 -58.33457 7404 ft 143 kts 338°
2026-05-06 23:55 -34.48060 -58.33962 8009 ft 145 kts 336°
2026-05-06 23:56 -34.47157 -58.34499 8628 ft 145 kts 336°
2026-05-06 23:56 -34.46248 -58.35045 9226 ft 147 kts 336°
2026-05-06 23:56 -34.45335 -58.35588 9776 ft 152 kts 337°
2026-05-06 23:56 -34.44307 -58.36183 9997 ft 176 kts 337°
2026-05-06 23:57 -34.43131 -58.36852 10186 ft 196 kts 336°
2026-05-06 23:57 -34.41844 -58.37580 10668 ft 213 kts 335°
2026-05-06 23:57 -34.40443 -58.38368 10538 ft 226 kts 332°
2026-05-06 23:57 -34.39004 -58.39183 10924 ft 232 kts 332°
2026-05-06 23:58 -34.37509 -58.40031 11298 ft 241 kts 332°
2026-05-06 23:58 -34.35976 -58.40899 11829 ft 245 kts 332°
2026-05-06 23:58 -34.34425 -58.41775 12376 ft 248 kts 332°
2026-05-06 23:58 -34.32852 -58.42660 12925 ft 251 kts 332°
2026-05-06 23:59 -34.31261 -58.43554 13458 ft 254 kts 332°
2026-05-06 23:59 -34.29650 -58.44459 13946 ft 256 kts 332°
2026-05-06 23:59 -34.28047 -58.45359 14424 ft 258 kts 332°
2026-05-06 23:59 -34.26408 -58.46279 14907 ft 261 kts 332°
2026-05-07 00:00 -34.24760 -58.47204 15428 ft 262 kts 332°
2026-05-07 00:00 -34.23155 -58.48103 15960 ft 262 kts 331°
2026-05-07 00:00 -34.21453 -58.49057 16529 ft 262 kts 331°
2026-05-07 00:00 -34.19795 -58.49986 17019 ft 264 kts 331°
2026-05-07 00:01 -34.18122 -58.50924 17500 ft 266 kts 331°
2026-05-07 00:01 -34.16431 -58.51871 17970 ft 268 kts 331°
2026-05-07 00:01 -34.14732 -58.52823 18380 ft 270 kts 331°
2026-05-07 00:01 -34.13022 -58.53781 18796 ft 272 kts 331°
2026-05-07 00:02 -34.11300 -58.54744 19213 ft 273 kts 330°
2026-05-07 00:02 -34.09565 -58.55714 19623 ft 275 kts 330°
2026-05-07 00:02 -34.07817 -58.56690 19924 ft 280 kts 330°
2026-05-07 00:02 -34.06039 -58.57685 20285 ft 283 kts 330°
2026-05-07 00:03 -34.04250 -58.58685 20692 ft 284 kts 330°
2026-05-07 00:03 -34.02470 -58.59677 21091 ft 286 kts 330°
2026-05-07 00:03 -34.00656 -58.60689 21472 ft 288 kts 330°
2026-05-07 00:03 -33.98833 -58.61705 21868 ft 290 kts 330°
2026-05-07 00:04 -33.96996 -58.62729 22255 ft 292 kts 330°
2026-05-07 00:04 -33.95141 -58.63763 22626 ft 295 kts 330°
2026-05-07 00:04 -33.93275 -58.64802 23002 ft 297 kts 330°
2026-05-07 00:04 -33.91394 -58.65849 23355 ft 299 kts 330°
2026-05-07 00:05 -33.89494 -58.66905 23660 ft 301 kts 330°
2026-05-07 00:05 -33.87589 -58.67965 23973 ft 303 kts 330°
2026-05-07 00:05 -33.85667 -58.69033 24302 ft 304 kts 330°
2026-05-07 00:05 -33.83741 -58.70102 24630 ft 305 kts 330°
2026-05-07 00:06 -33.81808 -58.71174 24959 ft 306 kts 330°
2026-05-07 00:06 -33.79891 -58.72237 25277 ft 308 kts 330°
2026-05-07 00:06 -33.77943 -58.73317 25593 ft 309 kts 330°
2026-05-07 00:06 -33.75985 -58.74402 25910 ft 310 kts 329°
2026-05-07 00:07 -33.74021 -58.75490 26221 ft 312 kts 329°
2026-05-07 00:07 -33.72045 -58.76584 26535 ft 313 kts 329°
2026-05-07 00:07 -33.70058 -58.77684 26817 ft 315 kts 329°
2026-05-07 00:07 -33.68062 -58.78788 27126 ft 316 kts 329°
2026-05-07 00:08 -33.66065 -58.79892 27442 ft 317 kts 329°
2026-05-07 00:08 -33.64059 -58.81001 27732 ft 318 kts 329°
2026-05-07 00:08 -33.62041 -58.82115 28009 ft 320 kts 329°
2026-05-07 00:08 -33.60017 -58.83232 28290 ft 321 kts 329°
2026-05-07 00:09 -33.57979 -58.84357 28572 ft 323 kts 329°
2026-05-07 00:09 -33.55934 -58.85485 28842 ft 324 kts 329°
2026-05-07 00:09 -33.53873 -58.86621 29120 ft 326 kts 329°
2026-05-07 00:09 -33.51808 -58.87758 29407 ft 327 kts 329°
2026-05-07 00:10 -33.49761 -58.88885 29661 ft 328 kts 329°
2026-05-07 00:10 -33.47682 -58.90029 29900 ft 329 kts 328°
2026-05-07 00:10 -33.45588 -58.91180 30130 ft 330 kts 328°
2026-05-07 00:10 -33.43492 -58.92332 30351 ft 332 kts 328°
2026-05-07 00:11 -33.41393 -58.93486 30557 ft 333 kts 328°
2026-05-07 00:11 -33.39285 -58.94643 30771 ft 334 kts 328°
2026-05-07 00:11 -33.37166 -58.95806 30981 ft 335 kts 328°
2026-05-07 00:11 -33.35039 -58.96973 31189 ft 336 kts 328°
2026-05-07 00:12 -33.32908 -58.98141 31409 ft 337 kts 328°
2026-05-07 00:12 -33.30770 -58.99312 31569 ft 338 kts 327°
2026-05-07 00:12 -33.28627 -59.00486 31803 ft 339 kts 327°
2026-05-07 00:12 -33.26507 -59.01645 32011 ft 339 kts 327°
2026-05-07 00:13 -33.24331 -59.02836 32203 ft 341 kts 327°
2026-05-07 00:13 -33.22200 -59.04002 32400 ft 342 kts 327°
2026-05-07 00:13 -33.20034 -59.05185 32596 ft 342 kts 327°
2026-05-07 00:13 -33.17862 -59.06371 32782 ft 343 kts 327°
2026-05-07 00:14 -33.15684 -59.07560 32956 ft 344 kts 327°
2026-05-07 00:14 -33.13498 -59.08753 33137 ft 345 kts 327°
2026-05-07 00:14 -33.11310 -59.09946 33310 ft 346 kts 327°
2026-05-07 00:14 -33.09116 -59.11141 33483 ft 347 kts 326°
2026-05-07 00:15 -33.06909 -59.12342 33652 ft 348 kts 326°
2026-05-07 00:15 -33.04698 -59.13548 33675 ft 353 kts 326°
2026-05-07 00:15 -33.00165 -59.16024 33678 ft 363 kts 327°
2026-05-07 00:16 -32.95513 -59.18557 33676 ft 375 kts 327°
2026-05-07 00:16 -32.90696 -59.21171 33652 ft 386 kts 327°
2026-05-07 00:17 -32.85733 -59.23860 33679 ft 396 kts 327°
2026-05-07 00:17 -32.80644 -59.26613 33676 ft 406 kts 327°
2026-05-07 00:18 -32.75517 -59.29375 33680 ft 406 kts 327°
2026-05-07 00:18 -32.70369 -59.32145 33684 ft 406 kts 327°
2026-05-07 00:19 -32.65237 -59.34908 33681 ft 403 kts 327°
2026-05-07 00:19 -32.60125 -59.37660 33681 ft 403 kts 327°
2026-05-07 00:20 -32.55012 -59.40413 33680 ft 403 kts 327°
2026-05-07 00:20 -32.49930 -59.43144 33681 ft 403 kts 327°
2026-05-07 00:21 -32.44779 -59.45819 33677 ft 407 kts 331°
2026-05-07 00:21 -32.39311 -59.47805 33680 ft 412 kts 335°
2026-05-07 00:22 -32.33756 -59.49595 33675 ft 414 kts 335°
2026-05-07 00:22 -32.28185 -59.51347 33656 ft 414 kts 335°
2026-05-07 00:23 -32.22649 -59.53096 33675 ft 413 kts 335°
2026-05-07 00:23 -32.17084 -59.54865 33680 ft 413 kts 335°
2026-05-07 00:24 -32.11525 -59.56634 33683 ft 413 kts 335°
2026-05-07 00:24 -32.05970 -59.58401 33664 ft 413 kts 335°
2026-05-07 00:25 -32.00436 -59.60158 33723 ft 414 kts 335°
2026-05-07 00:25 -31.94868 -59.61921 33680 ft 412 kts 335°
2026-05-07 00:26 -31.89328 -59.63673 33683 ft 412 kts 335°
2026-05-07 00:26 -31.83795 -59.65424 33672 ft 412 kts 335°
2026-05-07 00:27 -31.78286 -59.67165 33684 ft 413 kts 335°
2026-05-07 00:27 -31.72733 -59.68917 33689 ft 413 kts 335°
2026-05-07 00:28 -31.67179 -59.70666 33688 ft 413 kts 335°
2026-05-07 00:28 -31.62560 -59.72119 33644 ft 413 kts 335°
2026-05-07 00:29 -31.56996 -59.73869 33682 ft 415 kts 335°
2026-05-07 00:30 -31.45866 -59.77359 33676 ft 415 kts 335°
2026-05-07 00:30 -31.40281 -59.79107 33670 ft 415 kts 335°
2026-05-07 00:31 -31.34693 -59.80855 33692 ft 416 kts 335°
2026-05-07 00:31 -31.29094 -59.82604 33692 ft 416 kts 335°
2026-05-07 00:32 -31.23497 -59.84350 33688 ft 416 kts 335°
2026-05-07 00:32 -31.17900 -59.86094 33662 ft 416 kts 335°
2026-05-07 00:33 -31.12297 -59.87838 33689 ft 417 kts 335°
2026-05-07 00:33 -31.06727 -59.89571 33691 ft 416 kts 335°
2026-05-07 00:34 -31.01141 -59.91308 33692 ft 415 kts 335°
2026-05-07 00:34 -30.95570 -59.93063 33665 ft 414 kts 335°
2026-05-07 00:35 -30.89995 -59.94825 33688 ft 415 kts 335°
2026-05-07 00:35 -30.84415 -59.96586 33689 ft 415 kts 335°
2026-05-07 00:36 -30.78830 -59.98343 33689 ft 415 kts 335°
2026-05-07 00:36 -30.73249 -60.00096 33661 ft 415 kts 335°
2026-05-07 00:37 -30.67668 -60.01845 33697 ft 416 kts 334°
2026-05-07 00:37 -30.62081 -60.03599 33696 ft 416 kts 334°
2026-05-07 00:38 -30.56526 -60.05339 33699 ft 416 kts 334°
2026-05-07 00:38 -30.50933 -60.07088 33668 ft 416 kts 334°
2026-05-07 00:39 -30.45344 -60.08833 33697 ft 416 kts 334°
2026-05-07 00:39 -30.39746 -60.10580 33705 ft 416 kts 334°
2026-05-07 00:40 -30.34198 -60.12309 33706 ft 416 kts 334°
2026-05-07 00:40 -30.28584 -60.14061 33711 ft 422 kts 334°
2026-05-07 00:41 -30.22836 -60.15860 33711 ft 433 kts 335°
2026-05-07 00:41 -30.16983 -60.17678 33726 ft 435 kts 335°
2026-05-07 00:42 -30.11133 -60.19481 33712 ft 434 kts 335°
2026-05-07 00:42 -30.05296 -60.21284 33686 ft 434 kts 335°
2026-05-07 00:43 -29.99498 -60.23079 33712 ft 434 kts 335°
2026-05-07 00:43 -29.93666 -60.24883 33717 ft 434 kts 335°
2026-05-07 00:44 -29.87832 -60.26685 33718 ft 434 kts 335°
2026-05-07 00:44 -29.81987 -60.28488 33683 ft 434 kts 335°
2026-05-07 00:45 -29.76161 -60.30283 33716 ft 433 kts 335°
2026-05-07 00:45 -29.70365 -60.32066 33716 ft 433 kts 335°
2026-05-07 00:46 -29.64537 -60.33857 33724 ft 433 kts 335°
2026-05-07 00:46 -29.58707 -60.35647 33692 ft 433 kts 335°
2026-05-07 00:47 -29.52866 -60.37439 33727 ft 435 kts 335°
2026-05-07 00:47 -29.47015 -60.39231 33727 ft 435 kts 335°
2026-05-07 00:48 -29.41166 -60.41019 33726 ft 435 kts 335°
2026-05-07 00:48 -29.35352 -60.42793 33697 ft 435 kts 335°
2026-05-07 00:49 -29.29485 -60.44585 33729 ft 437 kts 334°
2026-05-07 00:49 -29.23599 -60.46378 33746 ft 437 kts 335°
2026-05-07 00:50 -29.17731 -60.48158 33728 ft 435 kts 335°
2026-05-07 00:50 -29.11879 -60.49936 33706 ft 434 kts 335°
2026-05-07 00:51 -29.06056 -60.51707 33730 ft 437 kts 334°
2026-05-07 00:51 -29.00166 -60.53496 33731 ft 438 kts 335°
2026-05-07 00:52 -28.94264 -60.55282 33735 ft 438 kts 335°
2026-05-07 00:52 -28.88368 -60.57064 33734 ft 438 kts 335°
2026-05-07 00:53 -28.82461 -60.58850 33739 ft 440 kts 334°
2026-05-07 00:53 -28.76572 -60.60626 33735 ft 440 kts 334°
2026-05-07 00:54 -28.70637 -60.62397 33737 ft 440 kts 335°
2026-05-07 00:54 -28.64706 -60.64160 33734 ft 440 kts 335°
2026-05-07 00:55 -28.58765 -60.65926 33739 ft 441 kts 335°
2026-05-07 00:55 -28.52826 -60.67691 33741 ft 441 kts 335°
2026-05-07 00:56 -28.46885 -60.69454 33740 ft 441 kts 335°
2026-05-07 00:56 -28.40948 -60.71214 33743 ft 441 kts 335°
2026-05-07 00:57 -28.35000 -60.72978 33747 ft 443 kts 335°
2026-05-07 00:57 -28.29038 -60.74742 33749 ft 443 kts 335°
2026-05-07 00:58 -28.23065 -60.76505 33747 ft 443 kts 335°
2026-05-07 00:58 -28.17141 -60.78251 33746 ft 442 kts 335°
2026-05-07 00:59 -28.08180 -60.80895 33746 ft 445 kts 335°
2026-05-07 01:00 -28.02185 -60.82659 33752 ft 445 kts 335°
2026-05-07 01:00 -27.96188 -60.84420 33755 ft 445 kts 335°
2026-05-07 01:01 -27.90195 -60.86179 33754 ft 445 kts 335°
2026-05-07 01:01 -27.84201 -60.87937 33750 ft 445 kts 335°
2026-05-07 01:02 -27.78206 -60.89693 33749 ft 445 kts 335°
2026-05-07 01:02 -27.72205 -60.91448 33749 ft 445 kts 335°
2026-05-07 01:03 -27.66198 -60.93204 33726 ft 446 kts 336°
2026-05-07 01:03 -27.60208 -60.94956 33749 ft 449 kts 336°
2026-05-07 01:04 -27.54174 -60.96763 33755 ft 448 kts 335°
2026-05-07 01:04 -27.48157 -60.98612 33752 ft 448 kts 335°
2026-05-07 01:05 -27.42134 -61.00465 33722 ft 448 kts 335°
2026-05-07 01:05 -27.36099 -61.02317 33755 ft 451 kts 335°
2026-05-07 01:06 -27.30064 -61.04162 33754 ft 452 kts 335°
2026-05-07 01:06 -27.23983 -61.05984 33754 ft 451 kts 336°
2026-05-07 01:07 -27.17907 -61.07757 33732 ft 451 kts 336°
2026-05-07 01:07 -27.11806 -61.09533 33753 ft 453 kts 336°
2026-05-07 01:08 -27.05724 -61.11306 33759 ft 453 kts 336°
2026-05-07 01:08 -26.99614 -61.13086 33759 ft 453 kts 336°
2026-05-07 01:09 -26.93499 -61.14867 33753 ft 453 kts 336°
2026-05-07 01:09 -26.87387 -61.16648 33756 ft 455 kts 336°
2026-05-07 01:10 -26.81254 -61.18431 33754 ft 456 kts 336°
2026-05-07 01:10 -26.75110 -61.20214 33755 ft 455 kts 336°
2026-05-07 01:11 -26.68976 -61.21992 33756 ft 455 kts 336°
2026-05-07 01:11 -26.62873 -61.23761 33759 ft 457 kts 336°
2026-05-07 01:12 -26.56715 -61.25544 33754 ft 457 kts 336°
2026-05-07 01:12 -26.50557 -61.27324 33753 ft 457 kts 336°
2026-05-07 01:13 -26.44386 -61.29105 33746 ft 457 kts 336°
2026-05-07 01:13 -26.38213 -61.30887 33753 ft 459 kts 337°
2026-05-07 01:14 -26.32051 -61.32664 33757 ft 460 kts 337°
2026-05-07 01:14 -26.25850 -61.34447 33760 ft 459 kts 337°
2026-05-07 01:15 -26.19662 -61.36224 33758 ft 458 kts 337°
2026-05-07 01:15 -26.13482 -61.38000 33751 ft 460 kts 337°
2026-05-07 01:16 -26.07260 -61.39788 33754 ft 462 kts 337°
2026-05-07 01:16 -26.01072 -61.41561 33755 ft 462 kts 337°
2026-05-07 01:17 -25.94845 -61.43342 33754 ft 462 kts 337°
2026-05-07 01:17 -25.88618 -61.45122 33750 ft 463 kts 337°
2026-05-07 01:18 -25.83421 -61.46608 33755 ft 464 kts 338°
2026-05-07 01:18 -25.77155 -61.48396 33754 ft 464 kts 338°
2026-05-07 01:19 -25.70900 -61.50178 33755 ft 464 kts 338°
2026-05-07 01:19 -25.64644 -61.51959 33744 ft 464 kts 338°
2026-05-07 01:20 -25.58359 -61.53749 33747 ft 467 kts 338°
2026-05-07 01:20 -25.52095 -61.55529 33751 ft 467 kts 338°
2026-05-07 01:21 -25.45793 -61.57316 33751 ft 467 kts 338°
2026-05-07 01:21 -25.39498 -61.59101 33749 ft 467 kts 338°
2026-05-07 01:22 -25.33200 -61.60884 33749 ft 467 kts 338°
2026-05-07 01:22 -25.26906 -61.62665 33749 ft 467 kts 338°
2026-05-07 01:23 -25.20650 -61.64433 33752 ft 467 kts 338°
2026-05-07 01:23 -25.14361 -61.66209 33733 ft 467 kts 338°
2026-05-07 01:24 -25.08054 -61.67989 33752 ft 468 kts 338°
2026-05-07 01:24 -25.01739 -61.69768 33750 ft 468 kts 338°
2026-05-07 01:25 -24.95422 -61.71545 33746 ft 468 kts 338°
2026-05-07 01:25 -24.89104 -61.73321 33748 ft 468 kts 338°
2026-05-07 01:26 -24.82772 -61.75099 33750 ft 470 kts 339°
2026-05-07 01:26 -24.76429 -61.76880 33751 ft 470 kts 339°
2026-05-07 01:27 -24.70121 -61.78648 33756 ft 470 kts 339°
2026-05-07 01:27 -24.63778 -61.80424 33752 ft 470 kts 339°
2026-05-07 01:28 -24.57429 -61.82201 33747 ft 471 kts 339°
2026-05-07 01:28 -24.51057 -61.83982 33752 ft 472 kts 339°
2026-05-07 01:29 -24.44681 -61.85761 33754 ft 472 kts 339°
2026-05-07 01:29 -24.38313 -61.87537 33749 ft 472 kts 339°
2026-05-07 01:30 -24.31975 -61.89303 33750 ft 474 kts 339°
2026-05-07 01:30 -24.25562 -61.91090 33751 ft 476 kts 339°
2026-05-07 01:31 -24.19146 -61.92873 33747 ft 475 kts 339°
2026-05-07 01:31 -24.12737 -61.94650 33749 ft 474 kts 339°
2026-05-07 01:32 -24.06347 -61.96423 33746 ft 475 kts 339°
2026-05-07 01:32 -23.99916 -61.98207 33749 ft 477 kts 339°
2026-05-07 01:33 -23.93523 -61.99975 33747 ft 477 kts 339°
2026-05-07 01:33 -23.87086 -62.01753 33751 ft 477 kts 339°
2026-05-07 01:34 -23.80639 -62.03532 33742 ft 477 kts 339°
2026-05-07 01:34 -23.74186 -62.05313 33750 ft 479 kts 340°
2026-05-07 01:35 -23.67717 -62.07096 33747 ft 479 kts 340°
2026-05-07 01:35 -23.61237 -62.08878 33749 ft 479 kts 340°
2026-05-07 01:36 -23.54801 -62.10648 33733 ft 479 kts 340°
2026-05-07 01:36 -23.48325 -62.12428 33749 ft 481 kts 340°
2026-05-07 01:37 -23.41828 -62.14210 33747 ft 481 kts 340°
2026-05-07 01:37 -23.35330 -62.15991 33746 ft 481 kts 340°
2026-05-07 01:38 -23.28885 -62.17756 33743 ft 481 kts 340°
2026-05-07 01:38 -23.22398 -62.19531 33744 ft 480 kts 340°
2026-05-07 01:39 -23.15915 -62.21303 33744 ft 480 kts 340°
2026-05-07 01:39 -23.09425 -62.23075 33746 ft 480 kts 340°
2026-05-07 01:40 -23.02944 -62.24843 33743 ft 480 kts 340°
2026-05-07 01:40 -22.96459 -62.26610 33742 ft 480 kts 340°
2026-05-07 01:41 -22.90014 -62.28365 33740 ft 480 kts 340°
2026-05-07 01:41 -22.83527 -62.30129 33742 ft 480 kts 340°
2026-05-07 01:42 -22.77047 -62.31890 33741 ft 480 kts 340°
2026-05-07 01:42 -22.70563 -62.33650 33741 ft 480 kts 340°
2026-05-07 01:43 -22.64085 -62.35406 33741 ft 480 kts 340°
2026-05-07 01:43 -22.57590 -62.37166 33741 ft 480 kts 340°
2026-05-07 01:44 -22.51097 -62.38923 33741 ft 480 kts 340°
2026-05-07 01:44 -22.44652 -62.40667 33733 ft 480 kts 341°
2026-05-07 01:45 -22.38394 -62.43029 33749 ft 473 kts 331°
2026-05-07 01:45 -22.32491 -62.46154 33737 ft 472 kts 329°
2026-05-07 01:46 -22.26653 -62.49419 33741 ft 472 kts 328°
2026-05-07 01:46 -22.20823 -62.52692 33739 ft 472 kts 328°
2026-05-07 01:47 -22.15020 -62.55925 33736 ft 473 kts 329°
2026-05-07 01:47 -22.09156 -62.59176 33751 ft 474 kts 329°
2026-05-07 01:48 -22.03280 -62.62427 33748 ft 474 kts 329°
2026-05-07 01:48 -21.97398 -62.65679 33741 ft 474 kts 329°
2026-05-07 01:49 -21.91564 -62.68902 33740 ft 475 kts 329°
2026-05-07 01:49 -21.85666 -62.72159 33748 ft 478 kts 329°
2026-05-07 01:50 -21.79734 -62.75431 33756 ft 478 kts 329°
2026-05-07 01:50 -21.73808 -62.78695 33751 ft 478 kts 329°
2026-05-07 01:51 -21.67882 -62.81957 33751 ft 478 kts 329°
2026-05-07 01:51 -21.61994 -62.85195 33751 ft 480 kts 329°
2026-05-07 01:52 -21.56044 -62.88465 33755 ft 480 kts 329°
2026-05-07 01:52 -21.50086 -62.91736 33755 ft 480 kts 329°
2026-05-07 01:53 -21.44124 -62.95005 33757 ft 480 kts 329°
2026-05-07 01:53 -21.38166 -62.98269 33757 ft 481 kts 329°
2026-05-07 01:54 -21.32195 -63.01540 33754 ft 483 kts 329°
2026-05-07 01:54 -21.26333 -63.04942 33760 ft 481 kts 326°
2026-05-07 01:55 -21.20536 -63.08525 33760 ft 481 kts 326°
2026-05-07 01:55 -21.14739 -63.12120 33767 ft 481 kts 326°
2026-05-07 01:56 -21.08934 -63.15688 33765 ft 481 kts 326°
2026-05-07 01:56 -21.03112 -63.19248 33775 ft 482 kts 326°
2026-05-07 01:57 -20.97284 -63.22804 33775 ft 482 kts 326°
2026-05-07 01:57 -20.91458 -63.26355 33789 ft 482 kts 326°
2026-05-07 01:58 -20.85659 -63.29889 33793 ft 482 kts 326°
2026-05-07 01:58 -20.79824 -63.33441 33799 ft 483 kts 326°
2026-05-07 01:59 -20.73989 -63.36991 33814 ft 483 kts 326°
2026-05-07 01:59 -20.68154 -63.40536 33816 ft 483 kts 326°
2026-05-07 02:00 -20.62314 -63.44082 33832 ft 482 kts 327°
2026-05-07 02:00 -20.56484 -63.47617 33842 ft 480 kts 327°
2026-05-07 02:01 -20.50672 -63.51141 33845 ft 479 kts 327°
2026-05-07 02:01 -20.44865 -63.54658 33844 ft 479 kts 327°
2026-05-07 02:02 -20.39099 -63.58148 33844 ft 479 kts 327°
2026-05-07 02:02 -20.33298 -63.61654 33845 ft 479 kts 327°
2026-05-07 02:03 -20.27489 -63.65162 33859 ft 479 kts 327°
2026-05-07 02:03 -20.22671 -63.68069 33856 ft 479 kts 327°
2026-05-07 02:04 -20.16871 -63.71568 33852 ft 479 kts 327°
2026-05-07 02:04 -20.11067 -63.75066 33852 ft 479 kts 327°
2026-05-07 02:05 -20.05271 -63.78554 33857 ft 478 kts 327°
2026-05-07 02:05 -19.99494 -63.82050 33867 ft 478 kts 326°
2026-05-07 02:06 -19.93754 -63.85539 33855 ft 478 kts 326°
2026-05-07 02:06 -19.87949 -63.89064 33861 ft 478 kts 326°
2026-05-07 02:07 -19.82181 -63.92572 33878 ft 478 kts 326°
2026-05-07 02:07 -19.73564 -63.97809 33860 ft 477 kts 326°
2026-05-07 02:08 -19.67809 -64.01315 33877 ft 477 kts 326°
2026-05-07 02:08 -19.62057 -64.04827 33884 ft 477 kts 326°
2026-05-07 02:09 -19.56315 -64.08340 33881 ft 476 kts 326°
2026-05-07 02:09 -19.50564 -64.11843 33877 ft 476 kts 327°
2026-05-07 02:10 -19.44801 -64.15344 33891 ft 477 kts 326°
2026-05-07 02:10 -19.39078 -64.18829 33896 ft 478 kts 326°
2026-05-07 02:11 -19.33300 -64.22344 33893 ft 478 kts 326°
2026-05-07 02:11 -19.27531 -64.25848 33918 ft 478 kts 327°
2026-05-07 02:12 -19.21742 -64.29355 33917 ft 478 kts 326°
2026-05-07 02:12 -19.15952 -64.32864 33929 ft 480 kts 326°
2026-05-07 02:13 -19.10189 -64.36355 33947 ft 480 kts 326°
2026-05-07 02:13 -19.04395 -64.39862 33963 ft 479 kts 326°
2026-05-07 02:14 -18.98602 -64.43365 33968 ft 479 kts 326°
2026-05-07 02:14 -18.92817 -64.46861 33974 ft 479 kts 326°
2026-05-07 02:15 -18.87015 -64.50380 33997 ft 481 kts 326°
2026-05-07 02:15 -18.81786 -64.53562 34001 ft 481 kts 326°
2026-05-07 02:16 -18.76018 -64.57069 33998 ft 481 kts 326°
2026-05-07 02:16 -18.70204 -64.60597 34014 ft 482 kts 326°
2026-05-07 02:17 -18.64375 -64.64125 34016 ft 482 kts 326°
2026-05-07 02:17 -18.58576 -64.67636 34027 ft 483 kts 326°
2026-05-07 02:18 -18.52744 -64.71192 34036 ft 484 kts 326°
2026-05-07 02:18 -18.46908 -64.74759 34048 ft 484 kts 326°
2026-05-07 02:19 -18.43266 -64.76984 34045 ft 484 kts 326°
2026-05-07 02:19 -18.37422 -64.80549 34052 ft 484 kts 326°
2026-05-07 02:20 -18.31590 -64.84102 34048 ft 485 kts 326°
2026-05-07 02:20 -18.25749 -64.87656 34061 ft 485 kts 326°
2026-05-07 02:21 -18.19901 -64.91212 34066 ft 485 kts 326°
2026-05-07 02:21 -18.14096 -64.94741 34083 ft 485 kts 326°
2026-05-07 02:22 -18.08209 -64.98316 34091 ft 485 kts 326°
2026-05-07 02:22 -18.02405 -65.01838 34107 ft 484 kts 326°
2026-05-07 02:23 -17.96550 -65.05388 34108 ft 484 kts 326°
2026-05-07 02:23 -17.90755 -65.08900 34145 ft 484 kts 326°
2026-05-07 02:24 -17.84909 -65.12439 34141 ft 484 kts 326°
2026-05-07 02:24 -17.79064 -65.15976 34169 ft 484 kts 326°
2026-05-07 02:25 -17.73233 -65.19499 34161 ft 483 kts 327°
2026-05-07 02:25 -17.67406 -65.23020 34182 ft 483 kts 326°
2026-05-07 02:26 -17.61590 -65.26545 34191 ft 483 kts 326°
2026-05-07 02:26 -17.55806 -65.30058 34200 ft 483 kts 326°
2026-05-07 02:27 -17.49994 -65.33580 34207 ft 482 kts 327°
2026-05-07 02:27 -17.44176 -65.37116 34206 ft 483 kts 326°
2026-05-07 02:28 -17.38363 -65.40654 34205 ft 483 kts 326°
2026-05-07 02:28 -17.32542 -65.44198 34181 ft 483 kts 326°
2026-05-07 02:29 -17.26719 -65.47736 34183 ft 483 kts 326°
2026-05-07 02:29 -17.20888 -65.51254 34190 ft 484 kts 326°
2026-05-07 02:30 -17.15104 -65.54774 34178 ft 484 kts 326°
2026-05-07 02:30 -17.09290 -65.58309 34133 ft 483 kts 326°
2026-05-07 02:31 -17.03475 -65.61849 34182 ft 483 kts 326°
2026-05-07 02:31 -16.97661 -65.65382 34175 ft 483 kts 327°
2026-05-07 02:32 -16.91846 -65.68919 34174 ft 483 kts 326°
2026-05-07 02:32 -16.86037 -65.72439 34136 ft 483 kts 327°
2026-05-07 02:33 -16.79855 -65.75162 34177 ft 488 kts 338°
2026-05-07 02:33 -16.73365 -65.77297 34142 ft 489 kts 339°
2026-05-07 02:34 -16.66824 -65.79316 34144 ft 490 kts 340°
2026-05-07 02:34 -16.60284 -65.81330 34113 ft 490 kts 339°
2026-05-07 02:35 -16.53746 -65.83361 34113 ft 490 kts 340°
2026-05-07 02:35 -16.47214 -65.85398 34086 ft 490 kts 340°
2026-05-07 02:36 -16.40675 -65.87438 34084 ft 490 kts 340°
2026-05-07 02:36 -16.34139 -65.89476 34083 ft 490 kts 340°
2026-05-07 02:37 -16.27648 -65.91498 34048 ft 490 kts 340°
2026-05-07 02:37 -16.21082 -65.93543 34053 ft 492 kts 340°
2026-05-07 02:38 -16.14519 -65.95584 34034 ft 492 kts 340°
2026-05-07 02:38 -16.07949 -65.97625 34034 ft 492 kts 340°
2026-05-07 02:39 -16.01432 -65.99649 34032 ft 492 kts 340°
2026-05-07 02:39 -15.94851 -66.01692 34031 ft 492 kts 341°
2026-05-07 02:40 -15.88291 -66.03727 34018 ft 492 kts 340°
2026-05-07 02:40 -15.81726 -66.05761 34017 ft 492 kts 340°
2026-05-07 02:41 -15.75196 -66.07784 34002 ft 492 kts 341°
2026-05-07 02:41 -15.68621 -66.09819 34001 ft 492 kts 341°
2026-05-07 02:42 -15.62056 -66.11850 33991 ft 493 kts 341°
2026-05-07 02:42 -15.55474 -66.13885 33998 ft 493 kts 341°
2026-05-07 02:43 -15.48919 -66.15910 33985 ft 493 kts 341°
2026-05-07 02:43 -15.42342 -66.17946 33985 ft 493 kts 341°
2026-05-07 02:44 -15.35772 -66.20007 33974 ft 493 kts 341°
2026-05-07 02:44 -15.29200 -66.22076 33974 ft 494 kts 341°
2026-05-07 02:45 -15.22620 -66.24145 33960 ft 494 kts 341°
2026-05-07 02:45 -15.16074 -66.26199 33963 ft 494 kts 341°
2026-05-07 02:46 -15.09490 -66.28262 33952 ft 494 kts 341°
2026-05-07 02:46 -15.02913 -66.30322 33944 ft 494 kts 341°
2026-05-07 02:47 -14.96326 -66.32385 33944 ft 494 kts 341°
2026-05-07 02:47 -14.89744 -66.34444 33947 ft 494 kts 341°
2026-05-07 02:48 -14.84272 -66.36155 33947 ft 494 kts 341°
2026-05-07 02:48 -14.76617 -66.38547 33946 ft 494 kts 341°
2026-05-07 02:49 -14.71103 -66.40269 33947 ft 494 kts 341°
2026-05-07 02:49 -14.64521 -66.42323 33950 ft 493 kts 341°
2026-05-07 02:50 -14.58001 -66.44356 33950 ft 493 kts 341°
2026-05-07 02:50 -14.51432 -66.46406 33949 ft 493 kts 341°
2026-05-07 02:51 -14.44868 -66.48455 33949 ft 493 kts 341°
2026-05-07 02:51 -14.38303 -66.50505 33948 ft 493 kts 342°
2026-05-07 02:52 -14.31741 -66.52552 33950 ft 493 kts 342°
2026-05-07 02:52 -14.25161 -66.54603 33952 ft 493 kts 342°
2026-05-07 02:53 -14.18593 -66.56649 33952 ft 493 kts 342°
2026-05-07 02:53 -14.12064 -66.58681 33952 ft 493 kts 341°
2026-05-07 02:54 -14.05481 -66.60729 33952 ft 493 kts 341°
2026-05-07 02:54 -13.98915 -66.62771 33952 ft 493 kts 341°
2026-05-07 02:55 -13.92351 -66.64811 33952 ft 493 kts 341°
2026-05-07 02:55 -13.85824 -66.66838 33952 ft 492 kts 341°
2026-05-07 02:56 -13.79263 -66.68874 33952 ft 493 kts 341°
2026-05-07 02:56 -13.72690 -66.70914 33955 ft 493 kts 342°
2026-05-07 02:57 -13.66109 -66.72954 33955 ft 494 kts 342°
2026-05-07 02:57 -13.59521 -66.74995 33958 ft 494 kts 342°
2026-05-07 02:58 -13.52929 -66.77036 33958 ft 494 kts 342°
2026-05-07 02:58 -13.46341 -66.79075 33960 ft 494 kts 342°
2026-05-07 02:59 -13.39753 -66.81113 33961 ft 495 kts 342°
2026-05-07 02:59 -13.33170 -66.83148 33962 ft 497 kts 342°
2026-05-07 03:00 -13.26549 -66.85194 33965 ft 497 kts 342°
2026-05-07 03:00 -13.19930 -66.87238 33967 ft 497 kts 342°
2026-05-07 03:01 -13.13303 -66.89283 33963 ft 497 kts 342°
2026-05-07 03:01 -13.06737 -66.91312 33965 ft 496 kts 341°
2026-05-07 03:02 -13.00129 -66.93379 33966 ft 495 kts 341°
2026-05-07 03:02 -12.93527 -66.95450 33966 ft 496 kts 341°
2026-05-07 03:03 -12.86930 -66.97517 33965 ft 496 kts 341°
2026-05-07 03:03 -12.80322 -66.99584 33966 ft 496 kts 341°
2026-05-07 03:04 -12.73719 -67.01647 33966 ft 496 kts 341°
2026-05-07 03:04 -12.67121 -67.03708 33965 ft 496 kts 341°
2026-05-07 03:05 -12.60564 -67.05755 33966 ft 495 kts 341°
2026-05-07 03:05 -12.53965 -67.07814 33971 ft 495 kts 341°
2026-05-07 03:06 -12.47366 -67.09872 33971 ft 495 kts 341°
2026-05-07 03:06 -12.40765 -67.11930 33971 ft 497 kts 341°
2026-05-07 03:07 -12.34138 -67.13995 33968 ft 497 kts 341°
2026-05-07 03:07 -12.27516 -67.16056 33971 ft 497 kts 341°
2026-05-07 03:08 -12.20896 -67.18116 33973 ft 497 kts 341°
2026-05-07 03:08 -12.14276 -67.20175 33976 ft 497 kts 341°
2026-05-07 03:09 -12.07688 -67.22224 33975 ft 498 kts 341°
2026-05-07 03:09 -12.01066 -67.24281 33977 ft 497 kts 341°
2026-05-07 03:10 -11.94436 -67.26340 33976 ft 497 kts 341°
2026-05-07 03:10 -11.87825 -67.28392 33980 ft 497 kts 341°
2026-05-07 03:11 -11.81199 -67.30448 33980 ft 497 kts 341°
2026-05-07 03:11 -11.74559 -67.32507 33980 ft 499 kts 342°
2026-05-07 03:12 -11.67899 -67.34571 33978 ft 500 kts 342°
2026-05-07 03:12 -11.61239 -67.36634 33980 ft 500 kts 342°
2026-05-07 03:13 -11.54622 -67.38683 33982 ft 500 kts 342°
2026-05-07 03:13 -11.47956 -67.40746 33982 ft 500 kts 342°
2026-05-07 03:14 -11.41288 -67.42808 33982 ft 501 kts 342°
2026-05-07 03:15 -11.31276 -67.45903 33984 ft 501 kts 342°
2026-05-07 03:15 -11.24599 -67.47966 33985 ft 501 kts 342°
2026-05-07 03:16 -11.17964 -67.50015 33985 ft 501 kts 342°
2026-05-07 03:16 -11.11286 -67.52076 33985 ft 501 kts 342°
2026-05-07 03:17 -11.04604 -67.54137 33988 ft 502 kts 342°
2026-05-07 03:17 -10.97927 -67.56196 33988 ft 500 kts 342°
2026-05-07 03:18 -10.91307 -67.58236 33993 ft 500 kts 342°
2026-05-07 03:18 -10.84654 -67.60286 33990 ft 499 kts 342°
2026-05-07 03:19 -10.78000 -67.62335 33990 ft 500 kts 342°
2026-05-07 03:19 -10.71333 -67.64387 33990 ft 500 kts 342°
2026-05-07 03:20 -10.64674 -67.66435 33990 ft 500 kts 342°
2026-05-07 03:20 -10.58023 -67.68490 33991 ft 500 kts 342°
2026-05-07 03:21 -10.51414 -67.70560 33992 ft 500 kts 342°
2026-05-07 03:21 -10.44764 -67.72650 33993 ft 501 kts 342°
2026-05-07 03:22 -10.38097 -67.74742 33992 ft 501 kts 342°
2026-05-07 03:22 -10.31427 -67.76831 33990 ft 502 kts 342°
2026-05-07 03:23 -10.24757 -67.78919 33991 ft 501 kts 342°
2026-05-07 03:23 -10.18077 -67.81009 33996 ft 501 kts 342°
2026-05-07 03:24 -10.11449 -67.83082 33994 ft 501 kts 342°
2026-05-07 03:24 -10.04783 -67.85166 33994 ft 501 kts 342°
2026-05-07 03:25 -9.98112 -67.87251 33994 ft 501 kts 342°
2026-05-07 03:25 -9.91454 -67.89330 33993 ft 501 kts 342°
2026-05-07 03:26 -9.84774 -67.91371 33995 ft 501 kts 343°
2026-05-07 03:26 -9.78056 -67.93277 33998 ft 501 kts 344°
2026-05-07 03:27 -9.71381 -67.95139 33996 ft 501 kts 344°
2026-05-07 03:27 -9.64667 -67.97024 33999 ft 501 kts 344°
2026-05-07 03:28 -9.57953 -67.98920 33998 ft 501 kts 344°
2026-05-07 03:28 -9.51237 -68.00819 34002 ft 501 kts 344°
2026-05-07 03:29 -9.44528 -68.02715 34000 ft 499 kts 344°
2026-05-07 03:29 -9.37847 -68.04602 34001 ft 498 kts 344°
2026-05-07 03:30 -9.31163 -68.06489 34004 ft 497 kts 344°
2026-05-07 03:30 -9.24540 -68.08358 34006 ft 497 kts 344°
2026-05-07 03:31 -9.17887 -68.10294 34006 ft 497 kts 343°
2026-05-07 03:31 -9.11246 -68.12293 34007 ft 498 kts 343°
2026-05-07 03:32 -9.04596 -68.14297 34007 ft 499 kts 343°
2026-05-07 03:32 -8.97934 -68.16295 34010 ft 499 kts 343°
2026-05-07 03:33 -8.91274 -68.18288 34009 ft 499 kts 343°
2026-05-07 03:33 -8.84616 -68.20278 34008 ft 498 kts 343°
2026-05-07 03:34 -8.77976 -68.22262 34010 ft 496 kts 343°
2026-05-07 03:34 -8.71354 -68.24241 34010 ft 495 kts 343°
2026-05-07 03:35 -8.64783 -68.26203 34010 ft 495 kts 343°
2026-05-07 03:35 -8.58175 -68.28176 34010 ft 495 kts 343°
2026-05-07 03:36 -8.52676 -68.29817 34010 ft 495 kts 343°
2026-05-07 03:36 -8.46063 -68.31790 34010 ft 495 kts 343°
2026-05-07 03:37 -8.39456 -68.33760 34015 ft 495 kts 344°
2026-05-07 03:37 -8.32854 -68.35729 34015 ft 494 kts 344°
2026-05-07 03:38 -8.26293 -68.37684 34016 ft 494 kts 344°
2026-05-07 03:38 -8.19695 -68.39649 34015 ft 494 kts 344°
2026-05-07 03:39 -8.13096 -68.41615 34018 ft 494 kts 344°
2026-05-07 03:39 -8.06487 -68.43582 34019 ft 496 kts 344°
2026-05-07 03:40 -7.99862 -68.45554 34020 ft 497 kts 344°
2026-05-07 03:40 -7.93231 -68.47527 34018 ft 497 kts 344°
2026-05-07 03:41 -7.86589 -68.49502 34017 ft 497 kts 344°
2026-05-07 03:41 -7.79958 -68.51474 34018 ft 497 kts 344°
2026-05-07 03:42 -7.73329 -68.53444 34027 ft 499 kts 344°
2026-05-07 03:42 -7.66639 -68.55431 34023 ft 502 kts 344°
2026-05-07 03:43 -7.59932 -68.57423 34022 ft 502 kts 344°
2026-05-07 03:43 -7.53267 -68.59395 34024 ft 502 kts 344°
2026-05-07 03:44 -7.46558 -68.61378 34024 ft 502 kts 344°
2026-05-07 03:44 -7.39844 -68.63363 34024 ft 502 kts 344°
2026-05-07 03:45 -7.33121 -68.65350 34024 ft 502 kts 344°
2026-05-07 03:45 -7.26449 -68.67322 34023 ft 502 kts 344°
2026-05-07 03:46 -7.19745 -68.69303 34024 ft 502 kts 344°
2026-05-07 03:46 -7.13026 -68.71287 34023 ft 502 kts 344°
2026-05-07 03:47 -7.06316 -68.73268 34024 ft 503 kts 344°
2026-05-07 03:47 -6.99570 -68.75258 34023 ft 505 kts 344°
2026-05-07 03:48 -6.92821 -68.77250 34020 ft 506 kts 344°
2026-05-07 03:48 -6.86061 -68.79244 34020 ft 506 kts 344°
2026-05-07 03:49 -6.79303 -68.81237 34020 ft 506 kts 344°
2026-05-07 03:49 -6.72546 -68.83229 34021 ft 505 kts 344°
2026-05-07 03:50 -6.65856 -68.85201 34020 ft 504 kts 344°
2026-05-07 03:50 -6.59138 -68.87177 34022 ft 503 kts 344°
2026-05-07 03:51 -6.52408 -68.89157 34021 ft 503 kts 344°
2026-05-07 03:51 -6.45691 -68.91146 34020 ft 503 kts 344°
2026-05-07 03:52 -6.38969 -68.93138 34020 ft 503 kts 344°
2026-05-07 03:52 -6.32245 -68.95130 34020 ft 505 kts 344°
2026-05-07 03:53 -6.25497 -68.97128 34020 ft 505 kts 344°
2026-05-07 03:53 -6.18778 -68.99116 34020 ft 506 kts 344°
2026-05-07 03:54 -6.11983 -69.01126 34022 ft 506 kts 344°
2026-05-07 03:54 -6.05270 -69.03111 34026 ft 505 kts 344°
2026-05-07 03:55 -5.98521 -69.05106 34026 ft 505 kts 344°
2026-05-07 03:55 -5.91768 -69.07102 34026 ft 505 kts 344°
2026-05-07 03:56 -5.85024 -69.09095 34026 ft 505 kts 344°
2026-05-07 03:56 -5.78274 -69.11089 34026 ft 505 kts 344°
2026-05-07 03:57 -5.71563 -69.13071 34028 ft 505 kts 344°
2026-05-07 03:57 -5.64812 -69.15065 34028 ft 504 kts 344°
2026-05-07 03:58 -5.59647 -69.16590 34029 ft 503 kts 344°
2026-05-07 03:58 -5.55716 -69.17750 34029 ft 502 kts 344°
2026-05-07 03:59 -5.49041 -69.19720 34029 ft 503 kts 344°
2026-05-07 03:59 -5.42324 -69.21702 34028 ft 504 kts 344°
2026-05-07 04:00 -5.38709 -69.22768 34044 ft 504 kts 344°
2026-05-07 04:00 -5.33133 -69.24413 34033 ft 503 kts 343°
2026-05-07 04:01 -5.26396 -69.26399 34027 ft 505 kts 344°
2026-05-07 04:01 -5.19690 -69.28376 34026 ft 505 kts 344°
2026-05-07 04:02 -5.12930 -69.30369 34029 ft 505 kts 343°
2026-05-07 04:02 -5.06181 -69.32357 34028 ft 505 kts 344°
2026-05-07 04:03 -4.99421 -69.34349 34029 ft 505 kts 344°
2026-05-07 04:03 -4.92719 -69.36324 34028 ft 504 kts 344°
2026-05-07 04:04 -4.85990 -69.38306 34029 ft 503 kts 344°
2026-05-07 04:04 -4.79267 -69.40285 34028 ft 503 kts 344°
2026-05-07 04:05 -4.72545 -69.42264 34028 ft 503 kts 344°
2026-05-07 04:05 -4.65863 -69.44241 34028 ft 503 kts 344°
2026-05-07 04:06 -4.59151 -69.46254 34029 ft 503 kts 344°
2026-05-07 04:06 -4.52430 -69.48274 34028 ft 504 kts 344°
2026-05-07 04:07 -4.45706 -69.50293 34029 ft 504 kts 344°
2026-05-07 04:07 -4.38987 -69.52307 34029 ft 504 kts 344°
2026-05-07 04:08 -4.32266 -69.54321 34029 ft 504 kts 343°
2026-05-07 04:08 -4.25537 -69.56337 34030 ft 505 kts 343°
2026-05-07 04:09 -4.18848 -69.58341 34028 ft 506 kts 343°
2026-05-07 04:09 -4.12104 -69.60361 34027 ft 506 kts 343°
2026-05-07 04:10 -4.05352 -69.62385 34027 ft 506 kts 343°
2026-05-07 04:10 -3.98610 -69.64406 34029 ft 506 kts 343°
2026-05-07 04:11 -3.91852 -69.66431 34029 ft 506 kts 343°
2026-05-07 04:11 -3.85154 -69.68439 34029 ft 506 kts 343°
2026-05-07 04:12 -3.78411 -69.70459 34026 ft 506 kts 343°
2026-05-07 04:12 -3.71662 -69.72480 34026 ft 506 kts 343°
2026-05-07 04:13 -3.64913 -69.74502 34026 ft 506 kts 343°
2026-05-07 04:13 -3.58169 -69.76521 34028 ft 506 kts 343°
2026-05-07 04:14 -3.51429 -69.78540 34026 ft 505 kts 343°
2026-05-07 04:14 -3.44688 -69.80547 34029 ft 505 kts 344°
2026-05-07 04:15 -3.37982 -69.82518 34028 ft 505 kts 344°
2026-05-07 04:15 -3.31225 -69.84500 34029 ft 505 kts 344°
2026-05-07 04:16 -3.24488 -69.86478 34023 ft 505 kts 344°
2026-05-07 04:16 -3.17772 -69.88451 34028 ft 500 kts 344°
2026-05-07 04:17 -3.11107 -69.90410 34029 ft 499 kts 344°
2026-05-07 04:17 -3.04439 -69.92370 34029 ft 498 kts 344°
2026-05-07 04:18 -2.97828 -69.94312 34026 ft 498 kts 344°
2026-05-07 04:18 -2.91176 -69.96266 34026 ft 498 kts 344°
2026-05-07 04:19 -2.84520 -69.98222 34030 ft 498 kts 344°
2026-05-07 04:19 -2.77869 -70.00175 34028 ft 498 kts 344°
2026-05-07 04:20 -2.71213 -70.02134 34026 ft 498 kts 343°
2026-05-07 04:20 -2.64629 -70.04189 34026 ft 498 kts 342°
2026-05-07 04:21 -2.55829 -70.07024 34026 ft 498 kts 342°
2026-05-07 04:21 -2.49220 -70.09146 34026 ft 499 kts 343°
2026-05-07 04:22 -2.42598 -70.11261 34028 ft 500 kts 343°
2026-05-07 04:22 -2.35962 -70.13377 34029 ft 500 kts 343°
2026-05-07 04:23 -2.29333 -70.15491 34031 ft 500 kts 343°
2026-05-07 04:23 -2.22698 -70.17607 34031 ft 500 kts 343°
2026-05-07 04:24 -2.16106 -70.19709 34031 ft 500 kts 343°
2026-05-07 04:24 -2.09476 -70.21824 34032 ft 501 kts 343°
2026-05-07 04:25 -2.02837 -70.23941 34031 ft 501 kts 343°
2026-05-07 04:25 -1.96186 -70.26060 34034 ft 501 kts 343°
2026-05-07 04:26 -1.89535 -70.28181 34034 ft 501 kts 343°
2026-05-07 04:26 -1.82887 -70.30300 34034 ft 501 kts 343°
2026-05-07 04:27 -1.76242 -70.32418 34033 ft 502 kts 343°
2026-05-07 04:27 -1.69571 -70.34544 34031 ft 504 kts 343°
2026-05-07 04:28 -1.62886 -70.36675 34032 ft 504 kts 343°
2026-05-07 04:28 -1.56239 -70.38793 34032 ft 504 kts 343°
2026-05-07 04:29 -1.49551 -70.40924 34031 ft 504 kts 343°
2026-05-07 04:29 -1.42867 -70.43054 34031 ft 504 kts 343°
2026-05-07 04:30 -1.36166 -70.45188 34031 ft 506 kts 343°
2026-05-07 04:30 -1.29438 -70.47332 34032 ft 507 kts 343°
2026-05-07 04:31 -1.22761 -70.49459 34031 ft 507 kts 343°
2026-05-07 04:31 -1.16045 -70.51599 34031 ft 507 kts 343°
2026-05-07 04:32 -1.09322 -70.53741 34031 ft 507 kts 343°
2026-05-07 04:32 -1.02623 -70.55875 34031 ft 505 kts 343°
2026-05-07 04:33 -0.95919 -70.58010 34032 ft 504 kts 343°
2026-05-07 04:33 -0.89236 -70.60138 34031 ft 504 kts 343°
2026-05-07 04:34 -0.82601 -70.62251 34029 ft 504 kts 343°
2026-05-07 04:34 -0.75912 -70.64381 34028 ft 504 kts 343°
2026-05-07 04:35 -0.69224 -70.66511 34032 ft 504 kts 343°
2026-05-07 04:35 -0.62528 -70.68643 34031 ft 505 kts 343°
2026-05-07 04:36 -0.55827 -70.70776 34031 ft 505 kts 343°
2026-05-07 04:36 -0.49136 -70.72907 34031 ft 505 kts 343°
2026-05-07 04:37 -0.42468 -70.75030 34031 ft 505 kts 343°
2026-05-07 04:37 -0.35765 -70.77164 34031 ft 505 kts 343°
2026-05-07 04:38 -0.29074 -70.79295 34031 ft 505 kts 343°
2026-05-07 04:38 -0.22373 -70.81429 34034 ft 505 kts 343°
2026-05-07 04:39 -0.15667 -70.83564 34034 ft 505 kts 343°
2026-05-07 04:39 -0.08967 -70.85697 34034 ft 505 kts 343°
2026-05-07 04:40 -0.02264 -70.87832 34034 ft 505 kts 343°
2026-05-07 04:40 0.04442 -70.89967 34035 ft 507 kts 343°
2026-05-07 04:41 0.11133 -70.92097 34034 ft 508 kts 343°
2026-05-07 04:41 0.17872 -70.94243 34035 ft 508 kts 343°
2026-05-07 04:42 0.24612 -70.96389 34037 ft 508 kts 343°
2026-05-07 04:42 0.31358 -70.98537 34034 ft 508 kts 343°
2026-05-07 04:43 0.38096 -71.00683 34033 ft 508 kts 342°
2026-05-07 04:43 0.44857 -71.02836 34037 ft 510 kts 342°
2026-05-07 04:44 0.51593 -71.04982 34033 ft 510 kts 342°
2026-05-07 04:44 0.58372 -71.07141 34035 ft 510 kts 342°
2026-05-07 04:45 0.65135 -71.09295 34033 ft 510 kts 342°
2026-05-07 04:45 0.71910 -71.11452 34034 ft 510 kts 342°
2026-05-07 04:46 0.78648 -71.13598 34035 ft 511 kts 342°
2026-05-07 04:46 0.85426 -71.15756 34030 ft 511 kts 342°
2026-05-07 04:47 0.92209 -71.17917 34033 ft 511 kts 342°
2026-05-07 04:47 0.98993 -71.20078 34037 ft 511 kts 342°
2026-05-07 04:48 1.05774 -71.22237 34034 ft 511 kts 342°
2026-05-07 04:48 1.12564 -71.24400 34036 ft 513 kts 342°
2026-05-07 04:49 1.19395 -71.26577 34034 ft 516 kts 342°
2026-05-07 04:49 1.26198 -71.28744 34038 ft 516 kts 342°
2026-05-07 04:50 1.33076 -71.30935 34037 ft 516 kts 342°
2026-05-07 04:50 1.39887 -71.33105 34038 ft 516 kts 342°
2026-05-07 04:51 1.46726 -71.35284 34035 ft 516 kts 342°
2026-05-07 04:51 1.53591 -71.37472 34033 ft 518 kts 342°
2026-05-07 04:52 1.60453 -71.39658 34035 ft 518 kts 342°
2026-05-07 04:52 1.67329 -71.41849 34035 ft 518 kts 342°
2026-05-07 04:53 1.74192 -71.44036 34031 ft 518 kts 342°
2026-05-07 04:53 1.81067 -71.46227 34031 ft 518 kts 342°
2026-05-07 04:54 1.87932 -71.48415 34031 ft 518 kts 342°
2026-05-07 04:54 1.94746 -71.50587 34029 ft 517 kts 342°
2026-05-07 04:55 2.01611 -71.52776 34026 ft 517 kts 342°
2026-05-07 04:55 2.08477 -71.54965 34026 ft 517 kts 342°
2026-05-07 04:56 2.15337 -71.57153 34025 ft 517 kts 342°
2026-05-07 04:56 2.22187 -71.59337 34022 ft 515 kts 342°
2026-05-07 04:57 2.28967 -71.61499 34023 ft 514 kts 342°
2026-05-07 04:57 2.35775 -71.63671 34023 ft 513 kts 342°
2026-05-07 04:58 2.42580 -71.65842 34023 ft 513 kts 342°
2026-05-07 04:58 2.49384 -71.68013 34023 ft 513 kts 342°
2026-05-07 04:59 2.55843 -71.70995 34024 ft 507 kts 326°
2026-05-07 04:59 2.58561 -71.73193 34030 ft 494 kts 316°
2026-05-07 04:59 2.60966 -71.75608 34030 ft 487 kts 313°
2026-05-07 05:00 2.65531 -71.80614 34028 ft 487 kts 311°
2026-05-07 05:00 2.70012 -71.85692 33656 ft 484 kts 311°
2026-05-07 05:01 2.72241 -71.88209 33053 ft 483 kts 311°
2026-05-07 05:01 2.74445 -71.90684 32635 ft 479 kts 311°
2026-05-07 05:01 2.76648 -71.93148 32434 ft 470 kts 312°
2026-05-07 05:01 2.78812 -71.95560 32259 ft 460 kts 312°
2026-05-07 05:02 2.80925 -71.97914 32098 ft 450 kts 312°
2026-05-07 05:02 2.82997 -72.00220 31940 ft 441 kts 312°
2026-05-07 05:02 2.85027 -72.02479 31808 ft 432 kts 312°
2026-05-07 05:02 2.87018 -72.04695 31534 ft 426 kts 312°
2026-05-07 05:03 2.89004 -72.06907 31057 ft 427 kts 312°
2026-05-07 05:03 2.90988 -72.09116 30578 ft 428 kts 312°
2026-05-07 05:03 2.92979 -72.11333 30093 ft 429 kts 312°
2026-05-07 05:03 2.94976 -72.13558 29517 ft 430 kts 312°
2026-05-07 05:04 2.96988 -72.15800 28806 ft 433 kts 312°
2026-05-07 05:04 2.98961 -72.17998 28080 ft 427 kts 312°
2026-05-07 05:04 3.00936 -72.20199 27362 ft 420 kts 312°
2026-05-07 05:04 3.02874 -72.22359 26686 ft 414 kts 312°
2026-05-07 05:05 3.04786 -72.24490 26051 ft 406 kts 312°
2026-05-07 05:05 3.06644 -72.26561 25596 ft 395 kts 313°
2026-05-07 05:05 3.08454 -72.28580 25154 ft 385 kts 313°
2026-05-07 05:05 3.10223 -72.30552 24713 ft 375 kts 313°
2026-05-07 05:06 3.11373 -72.31835 24429 ft 373 kts 313°
2026-05-07 05:06 3.13668 -72.34392 23971 ft 371 kts 313°
2026-05-07 05:06 3.15383 -72.36304 23698 ft 367 kts 313°
2026-05-07 05:06 3.17078 -72.38193 23412 ft 363 kts 313°
2026-05-07 05:07 3.18212 -72.39457 23231 ft 360 kts 313°
2026-05-07 05:07 3.19889 -72.41325 22916 ft 367 kts 313°
2026-05-07 05:07 3.21618 -72.43251 22615 ft 375 kts 313°
2026-05-07 05:07 3.23360 -72.45191 22327 ft 374 kts 313°
2026-05-07 05:08 3.25121 -72.47153 22073 ft 397 kts 313°
2026-05-07 05:08 3.27028 -72.49276 21812 ft 421 kts 313°
2026-05-07 05:08 3.29060 -72.51538 21543 ft 442 kts 313°
2026-05-07 05:08 3.31149 -72.53865 21272 ft 456 kts 313°
2026-05-07 05:09 3.33280 -72.56242 21013 ft 459 kts 313°
2026-05-07 05:09 3.35407 -72.58618 20809 ft 457 kts 313°
2026-05-07 05:09 3.37499 -72.60956 20566 ft 455 kts 313°
2026-05-07 05:09 3.39614 -72.63318 20324 ft 454 kts 313°
2026-05-07 05:10 3.41723 -72.65673 19984 ft 453 kts 313°
2026-05-07 05:10 3.43833 -72.68028 19166 ft 456 kts 314°
2026-05-07 05:10 3.45961 -72.70402 18390 ft 457 kts 314°
2026-05-07 05:10 3.48067 -72.72752 17862 ft 449 kts 314°
2026-05-07 05:11 3.50117 -72.75042 17679 ft 432 kts 314°
2026-05-07 05:11 3.52088 -72.77246 17658 ft 421 kts 314°
2026-05-07 05:11 3.54040 -72.79425 17648 ft 421 kts 314°
2026-05-07 05:11 3.56001 -72.81611 17663 ft 423 kts 314°
2026-05-07 05:12 3.57969 -72.83806 17661 ft 423 kts 314°
2026-05-07 05:12 3.59935 -72.85998 17655 ft 423 kts 314°
2026-05-07 05:12 3.61907 -72.88199 17659 ft 423 kts 314°
2026-05-07 05:12 3.63870 -72.90390 17655 ft 423 kts 314°
2026-05-07 05:13 3.65815 -72.92561 17666 ft 423 kts 314°
2026-05-07 05:13 3.67780 -72.94756 17666 ft 423 kts 314°
2026-05-07 05:13 3.69744 -72.96949 17680 ft 423 kts 314°
2026-05-07 05:13 3.71711 -72.99145 17682 ft 424 kts 314°
2026-05-07 05:14 3.73683 -73.01348 17671 ft 426 kts 314°
2026-05-07 05:14 3.75688 -73.03586 17673 ft 437 kts 314°
2026-05-07 05:14 3.77734 -73.05869 17674 ft 441 kts 314°
2026-05-07 05:14 3.79787 -73.08161 17685 ft 442 kts 314°
2026-05-07 05:15 3.81841 -73.10457 17703 ft 442 kts 314°
2026-05-07 05:15 3.83893 -73.12752 17701 ft 441 kts 314°
2026-05-07 05:15 3.85945 -73.15045 17701 ft 441 kts 314°
2026-05-07 05:15 3.87991 -73.17332 17700 ft 441 kts 314°
2026-05-07 05:16 3.90016 -73.19596 17703 ft 441 kts 314°
2026-05-07 05:16 3.92067 -73.21888 17699 ft 441 kts 314°
2026-05-07 05:16 3.94114 -73.24176 17712 ft 441 kts 314°
2026-05-07 05:16 3.96167 -73.26470 17727 ft 441 kts 314°
2026-05-07 05:17 3.98224 -73.28770 17722 ft 441 kts 314°
2026-05-07 05:17 4.00269 -73.31056 17723 ft 439 kts 314°
2026-05-07 05:17 4.02267 -73.33294 17713 ft 422 kts 314°
2026-05-07 05:17 4.04196 -73.35456 17701 ft 413 kts 314°
2026-05-07 05:18 4.06050 -73.37647 17704 ft 414 kts 309°
2026-05-07 05:18 4.07673 -73.40038 17686 ft 416 kts 304°
2026-05-07 05:18 4.09195 -73.42464 17671 ft 416 kts 303°
2026-05-07 05:18 4.10712 -73.44939 17661 ft 417 kts 303°
2026-05-07 05:19 4.12222 -73.47422 17648 ft 417 kts 303°
2026-05-07 05:19 4.13722 -73.49898 17632 ft 417 kts 303°
2026-05-07 05:19 4.15227 -73.52386 17614 ft 417 kts 303°
2026-05-07 05:19 4.16729 -73.54871 17615 ft 417 kts 303°
2026-05-07 05:20 4.18231 -73.57358 17614 ft 417 kts 303°
2026-05-07 05:20 4.19731 -73.59842 17714 ft 416 kts 303°
2026-05-07 05:20 4.21234 -73.62332 18128 ft 420 kts 303°
2026-05-07 05:20 4.22754 -73.64843 18838 ft 422 kts 304°
2026-05-07 05:21 4.24492 -73.67212 19437 ft 422 kts 314°
2026-05-07 05:21 4.28697 -73.71266 20139 ft 422 kts 319°
2026-05-07 05:21 4.30863 -73.73251 20139 ft 422 kts 319°
2026-05-07 05:22 4.33006 -73.75217 20135 ft 410 kts 319°
2026-05-07 05:22 4.35065 -73.77114 20142 ft 394 kts 319°
2026-05-07 05:22 4.37048 -73.78944 20141 ft 384 kts 319°
2026-05-07 05:22 4.39010 -73.80754 20182 ft 383 kts 319°
2026-05-07 05:23 4.40970 -73.82561 20212 ft 383 kts 319°
2026-05-07 05:23 4.42930 -73.84371 20213 ft 384 kts 319°
2026-05-07 05:23 4.44889 -73.86182 19952 ft 384 kts 319°
2026-05-07 05:23 4.46861 -73.88005 19478 ft 384 kts 319°
2026-05-07 05:24 4.48816 -73.89813 19111 ft 381 kts 319°
2026-05-07 05:24 4.50756 -73.91608 18726 ft 378 kts 319°
2026-05-07 05:24 4.52686 -73.93393 18302 ft 377 kts 319°
2026-05-07 05:24 4.54609 -73.95171 18022 ft 373 kts 320°
2026-05-07 05:25 4.56519 -73.96937 17986 ft 373 kts 320°
2026-05-07 05:25 4.58387 -73.98704 17980 ft 375 kts 316°
2026-05-07 05:25 4.60044 -74.00730 17977 ft 377 kts 304°
2026-05-07 05:25 4.61243 -74.03070 17982 ft 378 kts 292°
2026-05-07 05:26 4.62121 -74.05554 17972 ft 378 kts 289°
2026-05-07 05:26 4.62931 -74.08065 17995 ft 376 kts 289°
2026-05-07 05:26 4.63716 -74.10520 17995 ft 362 kts 289°
2026-05-07 05:26 4.64478 -74.12887 17999 ft 353 kts 289°
2026-05-07 05:27 4.65235 -74.15225 18000 ft 352 kts 289°
2026-05-07 05:27 4.65993 -74.17559 17994 ft 352 kts 289°
2026-05-07 05:27 4.66754 -74.19894 17990 ft 353 kts 289°
2026-05-07 05:27 4.67515 -74.22230 17945 ft 352 kts 289°
2026-05-07 05:28 4.68281 -74.24577 17426 ft 356 kts 289°
2026-05-07 05:28 4.69050 -74.26935 17060 ft 353 kts 289°
2026-05-07 05:28 4.69804 -74.29251 16979 ft 347 kts 289°
2026-05-07 05:28 4.70554 -74.31550 16966 ft 348 kts 289°
2026-05-07 05:29 4.71307 -74.33859 16956 ft 348 kts 289°
2026-05-07 05:29 4.72059 -74.36165 16907 ft 348 kts 289°
2026-05-07 05:29 4.72803 -74.38445 16898 ft 349 kts 289°
2026-05-07 05:29 4.73702 -74.40693 16881 ft 343 kts 299°
2026-05-07 05:30 4.74996 -74.42627 16771 ft 328 kts 313°
2026-05-07 05:30 4.76541 -74.44272 16561 ft 320 kts 317°
2026-05-07 05:30 4.78128 -74.45824 16226 ft 317 kts 321°
2026-05-07 05:30 4.79871 -74.47144 15847 ft 312 kts 334°
2026-05-07 05:31 4.81855 -74.47956 15525 ft 305 kts 351°
2026-05-07 05:31 4.83928 -74.48175 15200 ft 297 kts
2026-05-07 05:31 4.85931 -74.47822 14820 ft 289 kts 23°
2026-05-07 05:31 4.87714 -74.46963 14481 ft 282 kts 38°
2026-05-07 05:32 4.89174 -74.45700 14241 ft 272 kts 52°
2026-05-07 05:32 4.90223 -74.44184 14114 ft 259 kts 66°
2026-05-07 05:32 4.90840 -74.42535 13982 ft 247 kts 79°
2026-05-07 05:32 4.91001 -74.40882 13873 ft 237 kts 93°
2026-05-07 05:33 4.90746 -74.39278 13771 ft 228 kts 106°
2026-05-07 05:33 4.90131 -74.37846 13637 ft 222 kts 119°
2026-05-07 05:33 4.89216 -74.36624 13391 ft 218 kts 131°
2026-05-07 05:33 4.88062 -74.35642 13083 ft 219 kts 139°
2026-05-07 05:34 4.86845 -74.34716 12766 ft 219 kts 137°
2026-05-07 05:34 4.85747 -74.33660 12427 ft 218 kts 128°
2026-05-07 05:34 4.84781 -74.32484 12079 ft 217 kts 128°
2026-05-07 05:34 4.83799 -74.31370 11954 ft 208 kts 129°
2026-05-07 05:35 4.82849 -74.30320 11886 ft 198 kts 130°
2026-05-07 05:35 4.81948 -74.29326 11683 ft 193 kts 130°
2026-05-07 05:35 4.80996 -74.28380 11442 ft 193 kts 136°
2026-05-07 05:35 4.79935 -74.27527 11079 ft 197 kts 140°
2026-05-07 05:36 4.78849 -74.26688 10789 ft 193 kts 139°
2026-05-07 05:36 4.77884 -74.25796 10509 ft 183 kts 134°
2026-05-07 05:36 4.77076 -74.24901 10398 ft 167 kts 128°
2026-05-07 05:36 4.76378 -74.23997 10161 ft 163 kts 126°
2026-05-07 05:37 4.75695 -74.23077 9900 ft 166 kts 124°
2026-05-07 05:37 4.75005 -74.22135 9712 ft 169 kts 127°
2026-05-07 05:37 4.74300 -74.21210 9460 ft 169 kts 127°
2026-05-07 05:37 4.73589 -74.20302 9205 ft 163 kts 126°
2026-05-07 05:38 4.72928 -74.19390 9015 ft 162 kts 125°
2026-05-07 05:38 4.72223 -74.18486 8799 ft 173 kts 126°
2026-05-07 05:38 4.71435 -74.17433 8525 ft 194 kts 125°
2026-05-07 05:38 4.70662 -74.16405 8382 ft 173 kts 126°
2026-05-07 05:39 4.70042 -74.15582 8368 ft 110 kts 127°
2026-05-07 05:39 4.69744 -74.15167 8369 ft 52 kts 110°
2026-05-07 05:39 4.69705 -74.14962 8368 ft 21 kts 96°
2026-05-07 05:39 4.69693 -74.14869 8369 ft 10 kts 98°
2026-05-07 05:40 4.69684 -74.14802 8369 ft 9 kts 98°
2026-05-07 05:40 4.69672 -74.14744 8369 ft 8 kts 112°
2026-05-07 05:40 4.69643 -74.14699 8370 ft 7 kts 127°
2026-05-07 05:40 4.69613 -74.14658 8370 ft 7 kts 127°
2026-05-07 05:41 4.69584 -74.14619 8370 ft 7 kts 127°
2026-05-07 05:41 4.69554 -74.14579 8370 ft 8 kts 128°
2026-05-07 05:41 4.69494 -74.14501 8370 ft 18 kts 127°
2026-05-07 05:41 4.69423 -74.14405 8369 ft 16 kts 126°
2026-05-07 05:42 4.69357 -74.14318 8370 ft 15 kts 127°
2026-05-07 05:42 4.69303 -74.14246 8370 ft 8 kts 127°
2026-05-07 05:42 4.69296 -74.14237 8370 ft 5 kts 127°
2026-05-07 05:42 4.69293 -74.14233 8370 ft 1 kts 127°
2026-05-07 05:43 4.69291 -74.14230 8369 ft 1 kts 127°
2026-05-07 05:43 4.69288 -74.14226 8369 ft 1 kts 127°
2026-05-07 05:43 4.69286 -74.14223 8369 ft 1 kts 127°
2026-05-07 05:43 4.69283 -74.14220 8370 ft 1 kts 127°
2026-05-07 05:44 4.69281 -74.14217 8370 ft 1 kts 127°
2026-05-07 05:44 4.69271 -74.14203 8370 ft 5 kts 127°
2026-05-07 05:44 4.69249 -74.14175 8370 ft 5 kts 127°
2026-05-07 05:44 4.69243 -74.14158 8370 ft 1 kts 91°
2026-05-07 05:45 4.69253 -74.14135 8370 ft 8 kts 59°
2026-05-07 05:45 4.69293 -74.14098 8370 ft 6 kts 37°
2026-05-07 05:45 4.69305 -74.14088 8370 ft 0 kts 38°